Time,TemperatureF,DewpointF,PressureIn,WindDirection,WindDirectionDegrees,WindSpeedMPH,WindSpeedGustMPH,Humidity,HourlyPrecipIn,Conditions,Clouds,dailyrainin,SoftwareType,DateUTC
2013-01-14 00:01:00,13.0,8.0,30.09,NE,38,0.0,0.0,80,0.00,,,0.00,,2013-01-14 07:01:00,
2013-01-14 00:12:00,13.0,8.0,30.09,NE,38,0.0,0.0,80,0.00,,,0.00,,2013-01-14 07:12:00,
2013-01-14 00:22:00,13.0,8.0,30.08,NE,38,0.0,0.0,81,0.00,,,0.00,,2013-01-14 07:22:00,
2013-01-14 00:32:00,13.0,8.0,30.08,NE,38,0.0,0.0,81,0.00,,,0.00,,2013-01-14 07:32:00,
2013-01-14 00:43:00,13.0,8.0,30.08,NE,38,0.0,0.0,81,0.00,,,0.00,,2013-01-14 07:43:00,
2013-01-14 00:52:00,13.0,8.0,30.08,NE,38,0.0,1.0,80,0.00,,,0.00,,2013-01-14 07:52:00,
2013-01-14 01:01:00,13.0,8.0,30.08,NE,38,0.0,1.0,80,0.00,,,0.00,,2013-01-14 08:01:00,
2013-01-14 01:11:00,13.0,8.0,30.08,NE,38,0.0,1.0,80,0.00,,,0.00,,2013-01-14 08:11:00,
2013-01-14 01:22:00,13.0,7.0,30.07,NE,38,0.0,0.0,78,0.00,,,0.00,,2013-01-14 08:22:00,
2013-01-14 01:32:00,13.0,7.0,30.07,NE,38,0.0,0.0,78,0.00,,,0.00,,2013-01-14 08:32:00,
2013-01-14 01:43:00,13.0,7.0,30.07,NE,38,0.0,0.0,78,0.00,,,0.00,,2013-01-14 08:43:00,
2013-01-14 01:53:00,14.0,8.0,30.09,NE,38,0.0,1.0,77,0.00,,,0.00,,2013-01-14 08:53:00,
2013-01-14 02:02:00,14.0,8.0,30.09,NE,38,0.0,1.0,77,0.00,,,0.00,,2013-01-14 09:02:00,
2013-01-14 02:12:00,14.0,8.0,30.09,NE,38,0.0,1.0,77,0.00,,,0.00,,2013-01-14 09:12:00,
2013-01-14 02:22:00,14.0,8.0,30.09,ENE,72,0.0,1.0,76,0.00,,,0.00,,2013-01-14 09:22:00,
2013-01-14 02:33:00,14.0,8.0,30.09,ENE,72,0.0,1.0,76,0.00,,,0.00,,2013-01-14 09:33:00,
2013-01-14 02:43:00,14.0,8.0,30.09,ENE,72,0.0,1.0,76,0.00,,,0.00,,2013-01-14 09:43:00,
2013-01-14 02:52:00,14.0,8.0,30.08,ENE,72,0.0,0.0,77,0.00,,,0.00,,2013-01-14 09:52:00,
2013-01-14 03:02:00,14.0,8.0,30.08,ENE,72,0.0,0.0,77,0.00,,,0.00,,2013-01-14 10:02:00,
2013-01-14 03:12:00,14.0,8.0,30.08,ENE,72,0.0,0.0,77,0.00,,,0.00,,2013-01-14 10:12:00,
2013-01-14 03:22:00,14.0,8.0,30.08,ENE,72,0.0,0.0,78,0.00,,,0.00,,2013-01-14 10:22:00,
2013-01-14 03:32:00,14.0,8.0,30.08,ENE,72,0.0,0.0,78,0.00,,,0.00,,2013-01-14 10:32:00,
2013-01-14 03:43:00,14.0,8.0,30.08,ENE,72,0.0,0.0,78,0.00,,,0.00,,2013-01-14 10:43:00,
2013-01-14 03:52:00,13.0,8.0,30.08,ENE,72,0.0,0.0,79,0.00,,,0.00,,2013-01-14 10:52:00,
2013-01-14 04:01:00,13.0,8.0,30.08,ENE,72,0.0,0.0,79,0.00,,,0.00,,2013-01-14 11:01:00,
2013-01-14 04:11:00,13.0,8.0,30.08,ENE,72,0.0,0.0,79,0.00,,,0.00,,2013-01-14 11:11:00,
2013-01-14 04:22:00,13.0,8.0,30.07,ENE,72,0.0,0.0,80,0.00,,,0.00,,2013-01-14 11:22:00,
2013-01-14 04:32:00,13.0,8.0,30.07,ENE,72,0.0,0.0,80,0.00,,,0.00,,2013-01-14 11:32:00,
2013-01-14 04:43:00,13.0,8.0,30.07,ENE,72,0.0,0.0,80,0.00,,,0.00,,2013-01-14 11:43:00,
2013-01-14 04:53:00,13.0,7.0,30.07,East,96,0.0,0.0,78,0.00,,,0.00,,2013-01-14 11:53:00,
2013-01-14 05:02:00,13.0,7.0,30.07,East,96,0.0,0.0,78,0.00,,,0.00,,2013-01-14 12:02:00,
2013-01-14 05:12:00,13.0,7.0,30.07,East,96,0.0,0.0,78,0.00,,,0.00,,2013-01-14 12:12:00,
2013-01-14 05:22:00,13.0,7.0,30.05,East,96,0.0,1.0,77,0.00,,,0.00,,2013-01-14 12:22:00,
2013-01-14 05:32:00,13.0,7.0,30.05,East,96,0.0,1.0,77,0.00,,,0.00,,2013-01-14 12:32:00,
2013-01-14 05:43:00,13.0,7.0,30.05,East,96,0.0,1.0,77,0.00,,,0.00,,2013-01-14 12:43:00,
2013-01-14 05:53:00,13.0,7.0,30.05,East,96,0.0,0.0,77,0.00,,,0.00,,2013-01-14 12:53:00,
2013-01-14 06:02:00,13.0,7.0,30.05,East,96,0.0,0.0,77,0.00,,,0.00,,2013-01-14 13:02:00,
2013-01-14 06:12:00,13.0,7.0,30.05,East,96,0.0,0.0,77,0.00,,,0.00,,2013-01-14 13:12:00,
2013-01-14 06:22:00,14.0,8.0,30.06,East,96,0.0,0.0,78,0.00,,,0.00,,2013-01-14 13:22:00,
2013-01-14 06:33:00,14.0,8.0,30.06,East,96,0.0,0.0,78,0.00,,,0.00,,2013-01-14 13:33:00,
2013-01-14 06:43:00,14.0,8.0,30.06,East,96,0.0,0.0,78,0.00,,,0.00,,2013-01-14 13:43:00,
2013-01-14 06:53:00,13.0,8.0,30.05,East,96,0.0,0.0,79,0.00,,,0.00,,2013-01-14 13:53:00,
2013-01-14 07:02:00,13.0,8.0,30.05,East,96,0.0,0.0,79,0.00,,,0.00,,2013-01-14 14:02:00,
2013-01-14 07:12:00,13.0,8.0,30.05,East,96,0.0,0.0,79,0.00,,,0.00,,2013-01-14 14:12:00,
2013-01-14 07:22:00,13.0,7.0,30.04,East,96,0.0,0.0,78,0.00,,,0.00,,2013-01-14 14:22:00,
2013-01-14 07:32:00,13.0,7.0,30.04,East,96,0.0,0.0,78,0.00,,,0.00,,2013-01-14 14:32:00,
2013-01-14 07:43:00,13.0,7.0,30.04,East,96,0.0,0.0,78,0.00,,,0.00,,2013-01-14 14:43:00,
2013-01-14 07:53:00,14.0,8.0,30.05,East,96,0.0,0.0,76,0.00,,,0.00,,2013-01-14 14:53:00,
2013-01-14 08:02:00,14.0,8.0,30.05,East,96,0.0,0.0,76,0.00,,,0.00,,2013-01-14 15:02:00,
2013-01-14 08:12:00,14.0,8.0,30.05,East,96,0.0,0.0,76,0.00,,,0.00,,2013-01-14 15:12:00,
2013-01-14 08:22:00,14.0,9.0,30.05,East,96,0.0,0.0,80,0.00,,,0.00,,2013-01-14 15:22:00,
2013-01-14 08:33:00,14.0,9.0,30.05,East,96,0.0,0.0,80,0.00,,,0.00,,2013-01-14 15:33:00,
2013-01-14 08:43:00,14.0,9.0,30.05,East,96,0.0,0.0,80,0.00,,,0.00,,2013-01-14 15:43:00,
2013-01-14 08:53:00,14.0,9.0,30.05,East,96,0.0,0.0,80,0.00,,,0.00,,2013-01-14 15:53:00,
2013-01-14 09:02:00,14.0,9.0,30.05,East,96,0.0,0.0,80,0.00,,,0.00,,2013-01-14 16:02:00,
2013-01-14 09:12:00,14.0,9.0,30.05,East,96,0.0,0.0,80,0.00,,,0.00,,2013-01-14 16:12:00,
2013-01-14 09:22:00,14.0,9.0,30.06,East,96,0.0,0.0,81,0.00,,,0.00,,2013-01-14 16:22:00,
2013-01-14 09:32:00,14.0,9.0,30.06,East,96,0.0,0.0,81,0.00,,,0.00,,2013-01-14 16:32:00,
2013-01-14 09:43:00,14.0,9.0,30.06,East,96,0.0,0.0,81,0.00,,,0.00,,2013-01-14 16:43:00,
2013-01-14 09:53:00,14.0,10.0,30.06,East,96,0.0,0.0,82,0.00,,,0.00,,2013-01-14 16:53:00,
2013-01-14 10:02:00,14.0,10.0,30.06,East,96,0.0,0.0,82,0.00,,,0.00,,2013-01-14 17:02:00,
2013-01-14 10:12:00,14.0,10.0,30.06,East,96,0.0,0.0,82,0.00,,,0.00,,2013-01-14 17:12:00,
2013-01-14 10:22:00,15.0,10.0,30.04,East,96,0.0,0.0,79,0.00,,,0.00,,2013-01-14 17:22:00,
2013-01-14 10:33:00,15.0,10.0,30.04,East,96,0.0,0.0,79,0.00,,,0.00,,2013-01-14 17:33:00,
2013-01-14 10:43:00,15.0,10.0,30.04,East,96,0.0,0.0,79,0.00,,,0.00,,2013-01-14 17:43:00,
2013-01-14 10:53:00,16.0,10.0,30.04,NNE,26,0.0,2.0,76,0.00,,,0.00,,2013-01-14 17:53:00,
2013-01-14 11:02:00,16.0,10.0,30.04,NNE,26,0.0,2.0,76,0.00,,,0.00,,2013-01-14 18:02:00,
2013-01-14 11:12:00,16.0,10.0,30.04,NNE,26,0.0,2.0,76,0.00,,,0.00,,2013-01-14 18:12:00,
2013-01-14 11:22:00,16.0,9.0,30.03,East,81,0.0,2.0,74,0.00,,,0.00,,2013-01-14 18:22:00,
2013-01-14 11:33:00,16.0,9.0,30.03,East,81,0.0,2.0,74,0.00,,,0.00,,2013-01-14 18:33:00,
2013-01-14 11:43:00,16.0,9.0,30.03,East,81,0.0,2.0,74,0.00,,,0.00,,2013-01-14 18:43:00,
2013-01-14 11:52:00,17.0,10.0,30.02,East,81,0.0,2.0,73,0.00,,,0.00,,2013-01-14 18:52:00,
2013-01-14 12:02:00,17.0,10.0,30.02,East,81,0.0,2.0,73,0.00,,,0.00,,2013-01-14 19:02:00,
2013-01-14 12:12:00,17.0,10.0,30.02,East,81,0.0,2.0,73,0.00,,,0.00,,2013-01-14 19:12:00,
2013-01-14 12:22:00,18.0,10.0,30.03,North,355,1.0,3.0,70,0.00,,,0.00,,2013-01-14 19:22:00,
2013-01-14 12:32:00,18.0,10.0,30.03,North,355,1.0,3.0,70,0.00,,,0.00,,2013-01-14 19:32:00,
2013-01-14 12:43:00,18.0,10.0,30.03,North,355,1.0,3.0,70,0.00,,,0.00,,2013-01-14 19:43:00,
2013-01-14 12:53:00,18.0,10.0,30.01,ENE,60,0.0,2.0,70,0.00,,,0.00,,2013-01-14 19:53:00,
2013-01-14 13:02:00,18.0,10.0,30.01,ENE,60,0.0,2.0,70,0.00,,,0.00,,2013-01-14 20:02:00,
2013-01-14 13:12:00,18.0,10.0,30.01,ENE,60,0.0,2.0,70,0.00,,,0.00,,2013-01-14 20:12:00,
2013-01-14 13:22:00,19.0,10.0,30.03,ENE,60,0.0,1.0,67,0.00,,,0.00,,2013-01-14 20:22:00,
2013-01-14 13:32:00,19.0,10.0,30.03,ENE,60,0.0,1.0,67,0.00,,,0.00,,2013-01-14 20:32:00,
2013-01-14 13:43:00,19.0,10.0,30.03,ENE,60,0.0,1.0,67,0.00,,,0.00,,2013-01-14 20:43:00,
2013-01-14 13:53:00,19.0,10.0,30.03,ENE,67,0.0,2.0,67,0.00,,,0.00,,2013-01-14 20:53:00,
2013-01-14 14:02:00,19.0,10.0,30.03,ENE,67,0.0,2.0,67,0.00,,,0.00,,2013-01-14 21:02:00,
2013-01-14 14:12:00,19.0,10.0,30.03,ENE,67,0.0,2.0,67,0.00,,,0.00,,2013-01-14 21:12:00,
2013-01-14 14:22:00,19.0,10.0,30.04,ENE,67,0.0,1.0,68,0.00,,,0.00,,2013-01-14 21:22:00,
2013-01-14 14:32:00,19.0,10.0,30.04,ENE,67,0.0,1.0,68,0.00,,,0.00,,2013-01-14 21:32:00,
2013-01-14 14:43:00,19.0,10.0,30.04,ENE,67,0.0,1.0,68,0.00,,,0.00,,2013-01-14 21:43:00,
2013-01-14 14:53:00,18.0,10.0,30.04,ENE,67,0.0,0.0,71,0.00,,,0.00,,2013-01-14 21:53:00,
2013-01-14 15:02:00,18.0,10.0,30.04,ENE,67,0.0,0.0,71,0.00,,,0.00,,2013-01-14 22:02:00,
2013-01-14 15:12:00,18.0,10.0,30.04,ENE,67,0.0,0.0,71,0.00,,,0.00,,2013-01-14 22:12:00,
2013-01-14 15:22:00,18.0,11.0,30.04,ENE,67,0.0,0.0,72,0.00,,,0.00,,2013-01-14 22:22:00,
2013-01-14 15:32:00,18.0,11.0,30.04,ENE,67,0.0,0.0,72,0.00,,,0.00,,2013-01-14 22:32:00,
2013-01-14 15:43:00,18.0,11.0,30.04,ENE,67,0.0,0.0,72,0.00,,,0.00,,2013-01-14 22:43:00,
2013-01-14 15:52:00,18.0,11.0,30.04,ENE,67,0.0,0.0,72,0.00,,,0.00,,2013-01-14 22:52:00,
2013-01-14 16:02:00,18.0,11.0,30.04,ENE,67,0.0,0.0,72,0.00,,,0.00,,2013-01-14 23:02:00,
2013-01-14 16:12:00,18.0,11.0,30.04,ENE,67,0.0,0.0,72,0.00,,,0.00,,2013-01-14 23:12:00,
2013-01-14 16:22:00,18.0,11.0,30.05,ENE,67,0.0,0.0,73,0.00,,,0.00,,2013-01-14 23:22:00,
2013-01-14 16:32:00,18.0,11.0,30.05,ENE,67,0.0,0.0,73,0.00,,,0.00,,2013-01-14 23:32:00,
2013-01-14 16:43:00,18.0,11.0,30.05,ENE,67,0.0,0.0,73,0.00,,,0.00,,2013-01-14 23:43:00,
2013-01-14 16:53:00,18.0,11.0,30.06,ENE,67,0.0,0.0,75,0.00,,,0.00,,2013-01-14 23:53:00,
2013-01-14 17:02:00,18.0,11.0,30.06,ENE,67,0.0,0.0,75,0.00,,,0.00,,2013-01-15 00:02:00,
2013-01-14 17:12:00,18.0,11.0,30.06,ENE,67,0.0,0.0,75,0.00,,,0.00,,2013-01-15 00:12:00,
2013-01-14 17:22:00,17.0,12.0,30.06,ENE,67,0.0,0.0,79,0.00,,,0.00,,2013-01-15 00:22:00,
2013-01-14 17:32:00,17.0,12.0,30.06,ENE,67,0.0,0.0,79,0.00,,,0.00,,2013-01-15 00:32:00,
2013-01-14 17:43:00,17.0,12.0,30.06,ENE,67,0.0,0.0,79,0.00,,,0.00,,2013-01-15 00:43:00,
2013-01-14 17:52:00,17.0,12.0,30.07,ENE,67,0.0,0.0,80,0.00,,,0.00,,2013-01-15 00:52:00,
2013-01-14 18:01:00,17.0,12.0,30.07,ENE,67,0.0,0.0,80,0.00,,,0.00,,2013-01-15 01:01:00,
2013-01-14 18:12:00,17.0,12.0,30.08,ENE,67,0.0,0.0,80,0.00,,,0.00,,2013-01-15 01:12:00,
2013-01-14 18:22:00,17.0,12.0,30.08,ENE,67,0.0,0.0,80,0.00,,,0.00,,2013-01-15 01:22:00,
2013-01-14 18:32:00,17.0,12.0,30.08,ENE,67,0.0,0.0,80,0.00,,,0.00,,2013-01-15 01:32:00,
2013-01-14 18:43:00,17.0,12.0,30.08,ENE,67,0.0,0.0,80,0.00,,,0.00,,2013-01-15 01:43:00,
2013-01-14 18:52:00,17.0,12.0,30.08,ENE,67,0.0,0.0,81,0.00,,,0.00,,2013-01-15 01:52:00,
2013-01-14 19:01:00,17.0,12.0,30.08,ENE,67,0.0,0.0,81,0.00,,,0.00,,2013-01-15 02:01:00,
2013-01-14 19:12:00,17.0,12.0,30.08,ENE,67,0.0,0.0,81,0.00,,,0.00,,2013-01-15 02:12:00,
2013-01-14 19:22:00,16.0,11.0,30.11,ENE,67,0.0,0.0,81,0.00,,,0.00,,2013-01-15 02:22:00,
2013-01-14 19:32:00,16.0,11.0,30.11,ENE,67,0.0,0.0,81,0.00,,,0.00,,2013-01-15 02:32:00,
2013-01-14 19:42:00,16.0,11.0,30.11,ENE,67,0.0,0.0,81,0.00,,,0.00,,2013-01-15 02:42:00,
2013-01-14 19:52:00,16.0,11.0,30.11,ENE,67,0.0,0.0,82,0.00,,,0.00,,2013-01-15 02:52:00,
2013-01-14 20:02:00,16.0,11.0,30.11,ENE,67,0.0,0.0,82,0.00,,,0.00,,2013-01-15 03:02:00,
2013-01-14 20:12:00,16.0,11.0,30.11,ENE,67,0.0,0.0,82,0.00,,,0.00,,2013-01-15 03:12:00,
2013-01-14 20:22:00,16.0,11.0,30.10,ENE,67,0.0,0.0,82,0.00,,,0.00,,2013-01-15 03:22:00,
2013-01-14 20:32:00,16.0,11.0,30.10,ENE,67,0.0,0.0,82,0.00,,,0.00,,2013-01-15 03:32:00,
2013-01-14 20:42:00,16.0,11.0,30.10,ENE,67,0.0,0.0,82,0.00,,,0.00,,2013-01-15 03:42:00,
2013-01-14 20:52:00,16.0,11.0,30.11,ENE,67,0.0,0.0,82,0.00,,,0.00,,2013-01-15 03:52:00,
2013-01-14 21:02:00,16.0,11.0,30.11,ENE,67,0.0,0.0,82,0.00,,,0.00,,2013-01-15 04:02:00,
2013-01-14 21:12:00,16.0,11.0,30.11,ENE,67,0.0,0.0,82,0.00,,,0.00,,2013-01-15 04:12:00,
2013-01-14 21:22:00,16.0,12.0,30.12,ENE,67,0.0,0.0,83,0.00,,,0.00,,2013-01-15 04:22:00,
2013-01-14 21:32:00,16.0,12.0,30.12,ENE,67,0.0,0.0,83,0.00,,,0.00,,2013-01-15 04:32:00,
2013-01-14 21:42:00,16.0,12.0,30.12,ENE,67,0.0,0.0,83,0.00,,,0.00,,2013-01-15 04:42:00,
2013-01-14 21:52:00,16.0,12.0,30.13,ENE,67,0.0,0.0,83,0.00,,,0.00,,2013-01-15 04:52:00,
2013-01-14 22:03:00,16.0,12.0,30.13,ENE,67,0.0,0.0,83,0.00,,,0.00,,2013-01-15 05:03:00,
2013-01-14 22:12:00,17.0,13.0,30.15,ENE,67,0.0,0.0,83,0.00,,,0.00,,2013-01-15 05:12:00,
2013-01-14 22:22:00,17.0,13.0,30.15,ENE,67,0.0,0.0,83,0.00,,,0.00,,2013-01-15 05:22:00,
2013-01-14 22:32:00,17.0,13.0,30.15,ENE,67,0.0,0.0,83,0.00,,,0.00,,2013-01-15 05:32:00,
2013-01-14 22:42:00,17.0,13.0,30.15,ENE,67,0.0,0.0,83,0.00,,,0.00,,2013-01-15 05:42:00,
2013-01-14 22:52:00,17.0,13.0,30.14,ENE,67,0.0,0.0,83,0.00,,,0.00,,2013-01-15 05:52:00,
2013-01-14 23:02:00,17.0,13.0,30.14,ENE,67,0.0,0.0,83,0.00,,,0.00,,2013-01-15 06:02:00,
2013-01-14 23:12:00,17.0,13.0,30.14,ENE,67,0.0,0.0,83,0.00,,,0.00,,2013-01-15 06:12:00,
2013-01-14 23:22:00,17.0,13.0,30.16,ENE,67,0.0,0.0,83,0.00,,,0.00,,2013-01-15 06:22:00,
2013-01-14 23:32:00,17.0,13.0,30.16,ENE,67,0.0,0.0,83,0.00,,,0.00,,2013-01-15 06:32:00,
2013-01-14 23:43:00,17.0,13.0,30.16,ENE,67,0.0,0.0,83,0.00,,,0.00,,2013-01-15 06:43:00,
2013-01-14 23:52:00,17.0,13.0,30.16,ENE,67,0.0,0.0,83,0.00,,,0.00,,2013-01-15 06:52:00,